Location: ????????
(42.0488°N, 44.0407°E)
Time: 14:11:54
(UTC+00:00)

Daily predictions for brighter satellites

Satellite Brightness Start Highest point End
(mag) Time Altitude Azimuth Time Altitude Azimuth Time Altitude Azimuth
CZ-4B DEB 4.3 17:07:10 10° SSE 17:12:39 82° ENE 17:18:08 10° NNW
PAYLOAD B 4.3 17:07:49 10° SSE 17:13:23 75° ENE 17:18:59 10° N
Cosmos 2150 Rocket 4.5 17:11:01 10° NNW 17:16:20 65° WSW 17:21:33 10° S
Cosmos 1758 3.4 17:13:29 10° N 17:17:07 51° E 17:20:43 10° SSE
Spot 2 Rocket 4.1 17:13:30 10° SE 17:18:13 41° ENE 17:22:59 10° N
Helios 1A Rocket 2.8 17:15:37 10° NNE 17:18:34 37° E 17:21:29 10° S
ERS-1 Rocket 3.0 17:13:49 10° SSE 17:18:49 90° WSW 17:23:51 10° NNW
Cosmos 1538 Rocket 4.4 17:14:40 10° S 17:19:28 41° ESE 17:24:21 10° NE
SL-14 R/B 3.1 17:16:16 10° S 17:19:58 89° W 17:23:42 10° N
CZ-4B R/B 3.2 17:14:46 10° SSE 17:20:06 69° ENE 17:25:25 10° N
Cosmos 1500 Rocket 4.4 17:16:38 10° N 17:20:32 32° ENE 17:24:23 10° SE
Cosmos 2298 Rocket 4.5 17:15:50 10° NNW 17:21:05 63° WSW 17:26:16 10° S
Cosmos 1833 Rocket 3.7 17:17:15 10° N 17:22:22 34° ENE 17:27:28 10° ESE
Cosmos 1607 4.1 17:16:19 10° NNW 17:22:46 86° ENE 17:29:14 10° SSE
In-Cosmos 22 4.3 17:18:25 10° S 17:24:10 81° E 17:29:55 10° NNE
Cosmos 1603 4.2 17:18:42 10° NNW 17:24:20 61° WSW 17:29:53 10° S
Terra 1.9 17:20:46 10° SSE 17:25:28 87° WSW 17:30:12 10° NNW
Meteor 2-11 Rocket 4.5 17:22:03 10° N 17:28:08 68° E 17:34:09 10° SSE
Okean O Rocket 2.3 17:24:10 10° SE 17:28:13 39° ENE 17:32:18 10° N
NOSS 3-2 (C) 3.4 17:23:34 10° SW 17:28:27 74° NW 17:34:16 10° NNE
Cosmos 1703 3.9 17:26:31 10° SSE 17:29:10 25° E 17:31:49 10° NE
Cosmos 1553 Rocket 4.3 17:24:44 10° SSE 17:30:50 51° E 17:36:51 10° NNE
IRS-1A Rocket 4.4 17:25:33 10° SSE 17:31:23 74° ENE 17:37:09 10° N
BREEZE-M R/B 4.3 17:25:37 10° WNW 17:33:34 83° NNE 17:39:20 10° ESE
USA 276 2.6 17:37:22 10° S 17:38:54 18° SE 17:40:35 10° E
DEBRIS 4.5 17:36:51 10° WNW 17:41:03 78° SSW 17:56:02 12° SE
Cosmos 1151 Rocket 3.0 17:38:57 10° S 17:43:15 79° E 17:47:35 10° N
USA 238 DEB 4.0 17:39:11 10° S 17:44:36 37° ESE 17:50:26 10° NE
Cosmos 2082 Rocket 4.4 17:42:23 10° NNE 17:44:40 12° NE 17:46:56 10° ENE
USA 238 4.0 17:39:26 10° S 17:44:50 36° ESE 17:50:39 10° NE
BREEZE-M DEB (TANK) 4.1 17:45:24 10° NW 17:47:14 19° N 17:48:49 10° ENE
Cosmos 2278 Rocket 3.4 17:43:31 12° SE 17:47:19 22° E 17:51:31 10° NE
GP-B 4.2 17:45:20 10° NNE 17:49:04 27° E 17:51:50 15° SE
Cosmos 1953 3.4 17:48:13 10° NNE 17:51:10 24° ENE 17:53:05 16° ESE
Sich 1 3.9 17:50:17 10° NNW 17:54:25 48° W 17:58:31 10° SSW
Cosmos 1408 Rocket 3.6 17:54:10 10° N 17:58:36 85° W 18:02:48 11° S
Cosmos 1943 Rocket 2.8 17:54:29 10° S 17:59:37 37° ESE 18:04:45 10° NE
Cosmos 1805 Rocket 3.6 17:55:50 10° N 18:00:11 82° W 18:04:18 11° S
SPOT 3 Rocket 4.0 17:56:16 15° SE 18:00:13 47° ENE 18:05:09 10° N
Cosmos 1745 Rocket 4.4 18:02:10 10° N 18:08:16 49° ENE 18:12:49 18° SE
SL-8 R/B 4.0 18:05:30 10° SSW 18:09:56 42° SE 18:14:24 10° ENE
Cosmos 1743 Rocket 3.5 18:09:19 10° N 18:13:41 80° E 18:16:48 19° SSE
Lacrosse 5 rocket 3.8 18:13:06 10° W 18:15:57 22° NNW 18:18:47 10° NNE
YAOGAN 11 4.3 18:14:55 10° N 18:19:19 72° WNW 18:23:37 10° SSW
Cosmos 1386 Rocket 4.5 18:13:15 10° N 18:19:38 79° E 18:24:30 17° SSE
Meteor 1-22 Rocket 4.0 18:16:03 10° N 18:21:20 77° E 18:25:02 20° SSE
Cosmos 2344 3.5 18:13:37 10° SSW 18:21:55 77° ESE 18:29:04 10° NE
ATLAS 5 CENTAUR R/B 3.3 18:18:58 10° SW 18:23:04 90° ESE 18:37:56 10° NE
USA 245 2.5 18:22:43 34° SSE 18:23:50 65° ENE 18:26:28 10° N
Cosmos 1680 Rocket 3.7 18:20:56 17° S 18:24:41 49° ESE 18:29:40 10° NNE
Cosmos 1417 Rocket 4.5 18:23:21 13° S 18:29:01 77° E 18:35:22 10° N
Okean 2 4.2 18:32:54 27° ESE 18:33:41 30° E 18:37:05 10° NNE
Meteor 1-23 Rocket 4.4 18:30:26 22° SSE 18:33:55 54° E 18:39:20 10° NNE
Okean-O 3.8 18:31:47 12° SSW 18:35:26 38° W 18:39:31 10° NNW
Cosmos 1633 Rocket 3.3 18:31:26 10° N 18:35:45 52° E 18:37:37 30° SE
Cosmos 2056 Rocket 4.2 18:31:18 10° N 18:36:06 41° ENE 18:38:39 24° ESE
NOSS 2-1 (E) 3.1 18:37:16 10° SSW 18:41:36 60° ESE 18:44:59 10° NE
USA 186 3.0 18:41:27 18° WSW 18:41:48 18° W 18:43:23 10° NW
Milstar 3 Cent rocket 4.0 18:42:25 10° SSW 18:42:28 10° SSW 18:42:28 10° SSW
Cosmos 1400 Rocket 4.3 18:41:04 10° NNE 18:43:42 18° ENE 18:44:17 18° E
Iridium 45 4.3 18:42:50 36° SSW 18:43:54 70° W 18:47:01 10° N
Cosmos 1420 Rocket 3.9 18:42:21 10° NNW 18:47:34 83° WSW 18:50:13 29° SSE
Meteor 1-15 Rocket 4.2 18:43:52 10° N 18:49:38 90° W 18:52:51 27° S
Ariane Rocket 3.1 18:51:55 27° S 18:54:42 73° WSW 18:59:47 10° NNW
Cosmos 2315 Rocket 3.9 18:52:04 21° S 18:56:22 84° E 19:02:36 10° N
IRS-1C Rocket 4.2 18:53:32 27° S 18:56:27 73° WSW 19:01:43 10° NNW
BREEZE-M R/B 4.2 18:54:15 10° W 18:58:12 57° NNW 19:05:58 10° ENE
USA 59 Rocket 0.5 18:56:49 10° SW 19:00:34 46° NW 19:03:36 10° NNE
Iridium 4 Rocket 4.2 18:58:14 15° SSW 19:02:21 48° W 19:06:59 10° N
Okean O Rocket 3.8 19:01:25 10° SW 19:04:32 19° W 19:07:40 10° NW
CZ-4B R/B 3.7 19:02:55 27° SSW 19:04:33 43° W 19:08:23 10° NNW
NOSS 2-1 (D) 3.8 19:01:23 10° SW 19:05:19 52° NW 19:08:28 10° NNE
Cosmos 1833 Rocket 3.8 19:01:09 10° NW 19:06:15 36° WSW 19:09:26 20° SSW
CZ-4B R/B 3.9 19:07:11 28° S 19:09:45 59° W 19:14:56 10° NNW
USA 276 3.2 19:09:19 10° W 19:11:26 32° NNW 19:13:47 10° NE
S3M 4.5 19:09:31 14° SSW 19:14:40 56° W 19:20:44 10° N
Cosmos 2112 Rocket 4.1 19:11:35 19° SSW 19:15:17 72° WNW 19:20:28 10° NNE
Cosmos 1470 Rocket 3.5 19:11:58 10° N 19:16:26 84° W 19:17:41 47° S
Helios 1B rocket 4.1 19:17:08 16° ENE 19:17:21 16° ENE 19:19:32 10° NNE
Cosmos 1933 Rocket 3.9 19:19:34 10° N 19:23:45 48° ENE 19:24:24 44° ESE
Okean 3 3.3 19:23:29 58° ESE 19:23:45 60° E 19:27:43 10° NNE
NOSS 2-1 (C) 4.3 19:21:09 10° WSW 19:24:55 39° NW 19:27:58 10° NNE
Cosmos 1953 4.2 19:23:21 10° NW 19:25:52 18° W 19:27:17 15° WSW
Cosmos 1709 Rocket 4.5 19:20:10 10° NNW 19:26:22 56° W 19:29:57 26° SSW
Cosmos 1441 Rocket 3.5 19:27:47 45° NE 19:27:47 45° NE 19:30:17 10° NNE
Cosmos 1371 Rocket 4.0 19:23:07 10° NNW 19:28:20 73° WSW 19:29:57 44° S
Cosmos 2082 Rocket 2.3 19:24:13 10° NNW 19:29:50 68° ENE 19:31:46 41° SE
SWAS 4.3 19:29:56 50° SW 19:30:54 79° WNW 19:34:59 10° NNE
Cosmos 2278 Rocket 2.8 19:25:24 10° SW 19:30:55 54° WNW 19:36:29 10° NNE
Cosmos 2184 Rocket 4.4 19:27:28 10° N 19:33:38 53° ENE 19:35:53 36° SE
CZ-2C R/B 3.6 19:34:15 29° WNW 19:34:15 29° WNW 19:36:11 10° NNW
Timation 2 Rocket 4.0 19:30:21 22° SSW 19:34:40 84° WNW 19:41:16 10° NNE
Cosmos 2154 Rocket 4.4 19:28:45 10° N 19:34:46 49° ENE 19:36:55 35° SE
Cosmos 614 Rocket 4.1 19:38:33 46° SE 19:39:07 49° ESE 19:43:59 10° NNE
Cosmos 1943 Rocket 3.7 19:38:15 10° WSW 19:43:19 33° WNW 19:48:25 10° N
Cosmos 1174 3.9 19:42:59 48° WSW 19:43:53 66° WNW 19:47:23 10° NNE
Helios 1A 2.6 19:40:47 10° NNE 19:44:46 87° ESE 19:44:59 79° S
TIMED 4.4 19:44:12 64° SSW 19:44:49 84° WNW 19:49:06 10° NNE
SL-4 R/B 3.9 19:49:23 15° NE 19:49:23 15° NE 19:49:59 10° NE
USA 308 4.3 19:49:06 18° NE 19:49:06 18° NE 19:50:24 10° NE
Cosmos 1331 Rocket 4.0 19:42:48 10° NNW 19:47:57 69° ENE 19:49:09 51° SE
ARIANE 5 R/B 3.5 19:50:27 34° E 19:51:06 36° ENE 19:55:09 10° N
SL-8 R/B 4.2 19:47:30 10° W 19:52:09 57° NNW 19:56:50 10° ENE
ARGOS Delta rocket 3.9 19:50:10 10° NNE 19:55:23 79° E 19:56:21 58° S
Cosmos 1869 Rocket 3.3 19:51:42 10° N 19:56:02 80° E 19:56:19 75° SE
CZ-2C R/B 3.8 19:52:10 10° NNE 19:56:50 59° E 19:57:10 57° ESE
CZ-2C R/B 4.3 19:53:26 10° NE 19:57:42 24° E 19:57:54 24° E
ALOS 2 3.2 20:06:36 43° E 20:07:01 45° ENE 20:11:12 10° N
USA 81 4.3 20:02:08 10° NNW 20:07:19 62° W 20:08:36 47° SW
Cosmos 1733 Rocket 3.7 20:04:02 10° N 20:08:06 40° ENE 20:08:13 40° E
Cosmos 1707 Rocket 4.4 20:08:51 38° E 20:08:51 38° E 20:12:44 10° NNE
Cosmos 2369 Rocket 2.6 20:08:55 43° ESE 20:09:15 43° ESE 20:14:31 10° NE
Cosmos 2228 Rocket 4.4 20:11:18 27° E 20:11:18 27° E 20:14:46 10° NNE
COSMOS 2406 3.3 20:06:08 10° NNW 20:11:49 69° ENE 20:13:17 49° SE
Cosmos 2297 4.2 20:12:56 40° ESE 20:13:17 41° ESE 20:18:36 10° NE
USA 215 3.7 20:12:58 19° ESE 20:17:43 60° NE 20:24:06 10° NW
Cosmos 1400 Rocket 4.3 20:15:58 10° NW 20:18:44 25° W 20:18:44 25° W
Cosmos 1862 Rocket 3.8 20:20:22 56° ENE 20:20:22 56° ENE 20:24:20 10° NNE
Cosmos 1656 Rocket 3.8 20:18:20 39° SW 20:20:20 66° WNW 20:25:53 10° NNE
Cosmos 972 Rocket 4.2 20:15:52 10° N 20:21:16 60° ENE 20:22:12 51° ESE
ARIANE 6 FM1 Upper Stage 2.7 20:22:12 70° WNW 20:22:21 71° NW 20:26:29 10° NNE
USA 290 4.5 20:24:30 10° N 20:26:23 20° NE 20:26:23 20° NE
Cosmos 1315 Rocket 3.9 20:25:39 10° N 20:28:46 33° ENE 20:28:46 33° ENE
NOSS 3-1 (A) 4.0 20:31:14 29° E 20:31:14 29° E 20:34:49 10° NE
Cosmos 2074 Rocket 4.4 20:26:11 10° NNW 20:32:11 53° W 20:33:59 40° SW
Cosmos 1302 Rocket 4.0 20:27:27 10° NNW 20:32:44 73° ENE 20:33:36 60° SE
NOSS 3-1 (C) 2.8 20:34:30 64° WSW 20:35:12 80° NW 20:40:34 10° NE
Okean 1-7 2.9 20:35:56 80° N 20:35:56 80° N 20:39:56 10° N
Spot 4 3.8 20:38:57 67° SW 20:39:18 70° WSW 20:44:08 10° NNW
Cosmos 2366 rocket 4.5 20:34:09 10° N 20:40:18 50° ENE 20:42:10 39° SE
PSLV R/B 3.6 20:36:47 10° N 20:41:28 82° WNW 20:41:46 76° SW
Cosmos 2327 Rocket 4.4 20:37:09 10° N 20:43:16 75° E 20:44:42 53° SSE
Exosat Rocket 4.3 20:44:59 39° SW 20:47:16 67° WNW 20:55:03 10° NNE
IRIDIUM 106 4.2 20:42:21 10° N 20:47:36 79° E 20:48:14 68° SSE
Helios 1B rocket 3.8 20:51:01 25° WNW 20:51:01 25° WNW 20:53:04 10° NW
Cosmos 1818 3.4 20:49:51 67° SSE 20:50:17 70° ESE 20:55:43 10° NE
Nadezhda 1 Rocket 4.4 20:51:27 38° SW 20:53:28 52° WNW 20:59:33 10° N
COSMOS 2455 2.8 20:55:28 56° SSE 20:56:17 62° ESE 21:02:14 10° NE
Lacrosse 4 Rocket 2.4 20:52:32 10° NNW 20:56:29 37° NE 20:57:02 36° ENE
ATLAS 5 CENTAUR R/B 3.1 20:58:21 19° NW 20:58:21 19° NW 21:00:35 10° N
Cosmos 962 Rocket 4.5 20:53:46 10° N 21:00:10 84° W 21:01:45 54° S
Meteor 1-24 Rocket 3.8 20:59:01 56° SSW 21:00:23 82° W 21:06:27 10° N
Cosmos 2218 Rocket 4.1 20:54:36 10° N 21:00:54 66° E 21:02:36 47° SE
GEOS 3 Rocket 4.1 20:59:59 35° ESE 21:02:05 60° NE 21:07:23 10° NNW
Cosmos 1992 Rocket 3.9 20:56:58 10° NNW 21:02:10 74° ENE 21:02:55 63° SE
Cosmos 1140 Rocket 4.4 21:03:36 34° ESE 21:03:40 34° E 21:08:13 10° NE
Cosmos 2263 4.1 21:04:20 61° SSW 21:05:23 88° WNW 21:11:07 10° NNE
ACS3 Solar Sail 1.8 21:06:43 10° NNE 21:12:22 60° E 21:13:26 51° SE
Cosmos 2082 Rocket 4.0 21:09:50 10° WNW 21:13:14 17° W 21:13:35 16° WSW
MetOp-A 3.6 21:15:10 60° NNW 21:15:10 60° NNW 21:18:19 10° NNW
Meteor 2-5 Rocket 4.0 21:21:58 48° SW 21:23:18 61° WNW 21:29:10 10° N
Cosmos 1869 4.0 21:20:37 10° N 21:23:05 44° N 21:23:05 44° N
SL-4 R/B 4.0 21:22:40 14° WNW 21:24:20 20° NNW 21:26:48 10° NE
SJ 16-02 3.4 21:26:00 16° E 21:26:00 16° E 21:28:28 10° ENE
ARIANE 5 R/B 4.4 21:27:49 21° W 21:27:49 21° W 21:30:51 10° NW
SL-8 Rocket 4.0 21:22:15 10° NNW 21:28:20 64° W 21:29:41 51° SW
Cosmos 921 Rocket 3.9 21:33:54 37° E 21:33:54 37° E 21:37:27 10° NNE
Cosmos 1300 Rocket 3.6 21:29:55 10° N 21:34:12 64° E 21:34:16 64° E
CZ-2C R/B 2.6 21:34:59 59° SW 21:35:29 62° W 21:40:43 10° NNW
Cosmos 1023 Rocket 4.3 21:36:11 69° SSE 21:36:38 76° ESE 21:41:42 10° NNE
CZ-2C R/B 3.9 21:32:40 10° N 21:37:37 40° WNW 21:38:51 35° WSW
Cosmos 1833 4.1 21:36:53 10° NNW 21:42:33 81° WSW 21:43:41 59° S
IDEFIX/ARIANE 42P 4.4 21:38:53 10° NE 21:42:37 20° E 21:44:10 17° ESE
Cosmos 2341 Rocket 4.3 21:36:40 10° NNW 21:42:39 52° W 21:44:01 44° SW
BREEZE-M DEB (TANK) 3.0 21:34:21 10° WNW 21:42:49 66° NNE 21:44:28 31° E
Cosmos 1703 Rocket 4.0 21:49:16 48° W 21:49:21 48° WNW 21:53:37 10° N
Cosmos 2369 Rocket 3.7 21:50:39 19° W 21:53:23 29° NW 21:58:13 10° N
Cosmos 2297 Rocket 4.5 21:49:13 10° N 21:53:27 21° NE 21:57:39 10° E
Geosat 3.9 21:48:30 10° NNE 21:53:32 75° ESE 21:54:13 63° S
Landsat 5 3.7 21:52:59 10° N 21:56:17 53° NW 21:56:17 53° NW
USA 215 3.5 22:00:17 42° SW 22:00:50 43° SW 22:06:59 10° WNW
Meteor 2-8 Rocket 4.4 21:54:45 10° N 22:00:55 76° W 22:02:37 49° SSW
Cosmos 1269 Rocket 3.9 22:01:19 59° SSW 22:02:19 83° WNW 22:07:39 10° NNE
Cosmos 2239 Rocket 4.4 21:59:04 10° N 22:05:15 89° W 22:07:15 46° S
In-Cosmos 22 Rocket 4.2 22:08:41 51° SW 22:09:58 69° WNW 22:15:36 10° N
Cosmos 2242 Rocket 4.1 22:10:21 43° ESE 22:11:01 47° E 22:15:14 10° NNE
Cosmos 540 Rocket 4.1 22:07:51 10° N 22:12:49 51° ENE 22:15:22 27° SE
Cosmos 1934 Rocket 4.3 22:08:04 10° N 22:14:22 64° E 22:17:31 31° SSE
USA 32 4.0 22:15:33 10° N 22:20:48 82° E 22:22:18 48° SSE
NOSS 3-1 (A) 4.2 22:18:34 22° W 22:20:54 34° NW 22:25:57 10° NNE
Cosmos 1339 Rocket 4.4 22:21:13 45° SSW 22:23:13 81° W 22:29:20 10° N
Cosmos 407 Rocket 3.3 22:24:23 55° SSW 22:25:33 87° ESE 22:30:42 10° NNE
Nadezhda 3 Rocket 4.1 22:24:15 41° SW 22:26:19 61° W 22:32:32 10° N
Cosmos 1346 Rocket 2.6 22:27:05 68° NW 22:27:05 68° NW 22:30:31 10° N
Cosmos 2360 4.2 22:31:10 44° S 22:32:58 73° ESE 22:38:40 10° NNE
DELTA 2 DEB (DPAF) 4.2 22:30:31 10° N 22:33:46 44° WNW 22:33:46 44° WNW
Lacrosse 4 Rocket 3.4 22:30:52 10° WNW 22:32:24 17° WNW 22:32:24 17° WNW
Cosmos 1025 Rocket 3.8 22:38:11 34° SE 22:39:29 46° E 22:43:40 10° NNE
ADEOS Rocket 3.0 22:33:54 10° NNE 22:39:54 65° ESE 22:42:20 34° S
Cosmos 304 Rocket 4.3 22:40:42 39° WSW 22:41:53 48° WNW 22:46:31 10° N
COSMOS 2455 4.5 22:38:34 13° W 22:42:38 26° NW 22:47:37 10° N
Cosmos 1190 Rocket 4.3 22:44:34 36° SSE 22:46:30 57° ESE 22:51:36 10° NNE
Cosmos 1656 3.6 22:46:54 40° SW 22:48:51 72° WNW 22:54:25 10° NNE
Cosmos 371 Rocket 4.0 22:52:11 34° WSW 22:53:40 43° WNW 22:58:16 10° N
ACS3 Solar Sail 3.3 22:50:01 10° NNW 22:54:06 21° WNW 22:56:47 15° W
Gbstr 26 Del rocket 4.2 22:53:18 34° SW 22:56:22 71° SE 23:03:52 10° ENE
Cosmos 1763 Rocket 3.6 22:54:27 10° NNW 22:59:21 53° WSW 23:00:46 40° SSW
BREEZE-M DEB (TANK) 4.4 22:57:49 29° S 23:00:05 44° ESE 23:13:56 10° ENE
ATLAS 3B R/B 3.6 22:56:02 24° S 23:00:19 47° ESE 23:07:45 10° NE
Cosmos 1697 Rocket 3.4 22:57:43 26° SSE 23:00:29 46° ESE 23:05:50 10° NE
MOS 1-B Rocket 3.8 22:55:04 10° NNE 23:00:58 80° ESE 23:03:47 31° S
SL-4 R/B 4.5 23:00:34 10° NNW 23:02:26 15° N 23:04:17 10° NE
SJ 16-02 1.9 23:02:28 35° WSW 23:03:30 42° WNW 23:07:33 10° N
Cosmos 2227 Rocket 4.0 23:03:01 10° N 23:08:01 31° NE 23:12:59 10° ESE
Lacrosse 5 rocket 3.3 23:06:24 10° NNW 23:09:17 24° NNE 23:12:06 10° E
NOSS 2-2 (D) 3.8 23:05:33 10° NNW 23:09:25 73° NE 23:14:47 10° SE
Cosmos 1605 Rocket 3.9 23:05:22 10° N 23:11:38 82° W 23:15:40 23° S
CZ-2D R/B 3.7 23:07:41 10° NE 23:12:20 28° E 23:16:54 10° SSE
NOSS 2-2 (C) 3.9 23:11:48 10° NW 23:15:44 47° WSW 23:18:34 24° S
SL-8 R/B 4.3 23:13:12 10° WNW 23:17:54 59° NNE 23:22:36 10° E
CENTAUR R/B 3.6 23:09:45 10° NNW 23:18:14 74° NE 23:27:47 10° SE
Cosmos 2251 Rocket 3.6 23:18:39 31° SW 23:21:14 70° WNW 23:26:35 10° NNE
IDEFIX/ARIANE 42P 2.9 23:17:16 10° N 23:22:21 52° WNW 23:24:51 28° SW
Cosmos 1378 Rocket 4.5 23:22:14 27° WSW 23:23:25 32° WNW 23:27:17 10° NNW
Cosmos 405 Rocket 3.4 23:24:33 25° WNW 23:24:33 25° WNW 23:27:05 10° NNW
Cosmos 1455 Rocket 4.0 23:22:06 10° N 23:26:16 45° ENE 23:30:26 10° SSE
FENGYUN 3A 3.7 23:21:40 10° N 23:26:58 64° WNW 23:29:53 27° SW
Cosmos 1862 4.5 23:27:41 15° SSE 23:30:04 32° E 23:33:16 10° NNE
Cosmos 676 Rocket 3.9 23:29:00 26° SSW 23:31:58 87° ESE 23:37:11 10° NNE
MSX 4.4 23:27:05 10° N 23:32:33 46° WNW 23:35:48 23° SW
H-2A R/B 3.1 23:27:45 10° NNE 23:32:36 39° E 23:37:10 11° SSE
Cosmos 2228 4.3 23:32:46 10° N 23:36:45 38° ENE 23:40:41 10° SSE
Cosmos 2297 Rocket 2.2 23:32:22 10° NNW 23:37:58 66° WSW 23:43:34 10° S
ADEOS II 3.4 23:33:47 10° NNE 23:38:33 35° E 23:43:16 10° SSE
Cosmos 468 Rocket 4.2 23:34:25 10° NNW 23:39:19 48° WSW 23:42:30 21° S
Cosmos 1782 2.9 23:36:26 10° N 23:39:56 62° E 23:42:46 14° SSE
Cosmos 292 Rocket 3.8 23:38:09 23° SSW 23:41:03 79° ESE 23:45:48 10° NNE
Meteor 2-16 Rocket 4.4 23:36:26 18° S 23:41:07 86° E 23:47:13 10° N
Delta 2 Rocket 4.2 23:42:15 18° SSE 23:42:15 18° SSE 23:43:35 10° ESE
Cosmos 2084 Rocket 4.3 23:39:29 21° WSW 23:41:35 37° NW 23:45:24 10° NNE
COSMOS 2441 4.4 23:37:03 10° N 23:41:56 73° WNW 23:45:01 23° SSW
Cosmos 1437 Rocket 3.6 23:38:49 10° N 23:42:05 40° ENE 23:45:17 10° SSE
USA 229 DEB 3.5 23:38:40 23° SW 23:42:31 75° NW 23:49:09 10° NNE
USA 229 3.5 23:38:42 23° SW 23:42:33 76° NW 23:49:12 10° NNE
NPP 4.1 23:37:54 10° N 23:43:04 47° WNW 23:46:18 22° SW
Meteor 2-21 Rocket 4.5 23:42:01 19° SSW 23:46:34 75° W 23:52:48 10° N
Cosmos 1980 Rocket 2.9 23:43:01 14° S 23:47:39 49° ESE 23:53:08 10° NE
USA 276 1.9 23:48:09 10° WNW 23:51:05 87° NNE 23:54:09 10° ESE
Okean 2 Rocket 3.6 23:48:39 10° NNW 23:52:43 40° W 23:55:04 22° SSW
Meteor 1-27 4.2 23:47:57 10° NNW 23:53:45 80° W 23:59:33 10° S
Cosmos 2058 3.4 23:51:08 13° S 23:54:29 53° E 23:58:18 10° NNE
